sat.trackr.live / text

‹ back to catalog

ONEWEB-0575

NORAD 56064 · 2023-043U

PAYLOAD ACTIVE UNKNOWN

§ Identity

Operator
Country
UK
Launch date
2023-03-26
Launch site
SRILR
Launch vehicle
Mass (kg)
RCS (m²)

Purposes: comms

External: N2YO · Heavens-Above · Gunter

§ Orbital elements

Epoch: 2026-05-24T23:27:37.601856Z

Period
109.37 min
Inclination
87.9103°
Eccentricity
0.0002468
Mean motion
13.16592655 rev/d
Perigee alt
1,195.9 km
Apogee alt
1,199.6 km
Semi-major
7,575.9 km
B*
-2.5621e-4
RAAN
233.3759°
Arg perigee
99.2115°
Mean anomaly
260.9295°
Rev number
15,591

§ Raw data

ONEWEB-05751 56064U 23043U   26144.97751854 -.00000085  00000+0 -25621-3 0  99992 56064  87.9103 233.3759 0002468  99.2115 260.9295 13.16592655155917

JSON: /api/v1/satellites/56064 · /tle

For live sub-satellite position, see the globe view (requires WebGL).

§ Visibility from observer

Set your observer location to see the next 7 days of passes ≥ 10°. The values pass through the URL so the page stays shareable.

No JS? Fill the form by hand. The geolocation button needs JavaScript.